リニア彗星

237P/LINEAR (2023)

English version
Home page
Updated on November 4, 2020

---------------------------------------------------------------------

・ プロフィール

・ 軌道要素

Epoch 2023 May 16.0 TT = JDT 2460080.5
T 2023 May 14.68972 TT                                  MPCW
q   1.9870475            (2000.0)            P               Q
n   0.14983706     Peri.   25.26169     -0.00071546     +0.97546585
a   3.5106690      Node   245.35907     -0.95368261     -0.06688968
e   0.4339975      Incl.   14.01673     -0.30081383     +0.20974306
P   6.58
From 462 observations 2002 May 17-2017 Nov. 23, mean residual 0".6.

・ 星図

・ 光度変化

        H = 15.0  G = 0.15               [    ,-194]  (              〜2022年11月 1日)
        m1 = -12   + 5 logΔ + 75 log r  [-194,   0]  (2022年11月 1日〜2023年 5月14日)
        m1 =   0.0 + 5 logΔ + 35 log r  [   0, 380]  (2023年 5月14日〜2024年 5月28日)
        H = 15.0  G = 0.15               [ 380,    ]  (2024年 5月28日〜              )

---------------------------------------------------------------------

軌道要素はM.P.E.C. 2018-F152に掲載されたものです。
星図はステラナビゲータ Ver.10 (アストロアーツ) で作成したものです。
光度グラフはComet for Windowsで作成したものです。

---------------------------------------------------------------------

Copyright(C) Seiichi Yoshida (comet@aerith.net). All rights reserved.